owner,sensor,date,latitude,longitude,vertical_datum,direction_of_sea_water_velocity,sea_water_speed,upward_sea_water_velocity,qcFlag 
ADCP,ioos:station:wmo:42890:1,2014-08-01T00:15:00Z,27.6250,-90.4410,15.2,6.0,30.7,-99999.0,'1111122,1111122,1199999999' 
ADCP,ioos:station:wmo:42890:1,2014-08-01T00:35:00Z,27.6250,-90.4410,15.2,348.0,32.4,-9999.0,'11111222,11111222,99999999' 
ADCP,ioos:station:wmo:42890:1,2014-08-01T00:55:00Z,27.6250,-90.4410,15.2,352.0,43.2,-9999.0,'11111222,11111222,99999999' 
ADCP,ioos:station:wmo:42890:1,2014-08-01T01:15:00Z,27.6250,-90.4410,15.2,5.0,52.0,-99999.0,'1111122,1111122,1199999999' 
ADCP,ioos:station:wmo:42890:1,2014-08-01T01:35:00Z,27.6250,-90.4410,15.2,353.0,45.2,-9999.0,'11111222,11111222,99999999' 
ADCP,ioos:station:wmo:42890:1,2014-08-01T01:55:00Z,27.6250,-90.4410,15.2,348.0,55.2,-9999.0,'11111222,11111222,99999999' 
ADCP,ioos:station:wmo:42890:1,2014-08-01T02:15:00Z,27.6250,-90.4410,15.2,353.0,49.5,-99999.0,'1111122,1111122,1199999999' 
ADCP,ioos:station:wmo:42890:1,2014-08-01T02:35:00Z,27.6250,-90.4410,15.2,351.0,47.6,-9999.0,'11111222,11111222,99999999' 
ADCP,ioos:station:wmo:42890:1,2014-08-01T02:55:00Z,27.6250,-90.4410,15.2,351.0,50.0,-9999.0,'11111222,11111222,99999999' 
ADCP,ioos:station:wmo:42890:1,2014-08-01T03:15:00Z,27.6250,-90.4410,15.2,1.0,56.8,-99999.0,'1111122,1111122,1199999999' 
ADCP,ioos:station:wmo:42890:1,2014-08-01T03:35:00Z,27.6250,-90.4410,15.2,1.0,57.2,-9999.0,'11111222,11111222,99999999' 
ADCP,ioos:station:wmo:42890:1,2014-08-01T03:55:00Z,27.6250,-90.4410,15.2,24.0,70.6,-9999.0,'11111222,11111222,99999999' 
ADCP,ioos:station:wmo:42890:1,2014-08-01T04:15:00Z,27.6250,-90.4410,15.2,356.0,47.8,-99999.0,'1111122,1111122,1199999999' 
ADCP,ioos:station:wmo:42890:1,2014-08-01T04:35:00Z,27.6250,-90.4410,15.2,49.0,102.2,-9999.0,'11111222,11111222,99999999' 
ADCP,ioos:station:wmo:42890:1,2014-08-01T04:55:00Z,27.6250,-90.4410,15.2,328.0,62.3,-9999.0,'11111222,11111222,99999999' 
ADCP,ioos:station:wmo:42890:1,2014-08-01T05:15:00Z,27.6250,-90.4410,15.2,341.0,73.0,-99999.0,'1111122,1111122,1199999999' 
ADCP,ioos:station:wmo:42890:1,2014-08-01T05:35:00Z,27.6250,-90.4410,15.2,348.0,61.0,-9999.0,'11111222,11111222,99999999' 
ADCP,ioos:station:wmo:42890:1,2014-08-01T05:55:00Z,27.6250,-90.4410,15.2,21.0,84.4,-99999.0,'1111122,1111122,1199999999' 
ADCP,ioos:station:wmo:42890:1,2014-08-01T06:15:00Z,27.6250,-90.4410,15.2,321.0,72.9,-9999.0,'11111222,11111222,99999999' 
ADCP,ioos:station:wmo:42890:1,2014-08-01T06:35:00Z,27.6250,-90.4410,15.2,269.0,119.0,-9999.0,'11111222,11111222,99999999' 
ADCP,ioos:station:wmo:42890:1,2014-08-01T06:55:00Z,27.6250,-90.4410,15.2,323.0,62.2,-9999.0,'11111222,11111222,99999999' 
ADCP,ioos:station:wmo:42890:1,2014-08-01T07:15:00Z,27.6250,-90.4410,15.2,341.0,64.9,-9999.0,'11111222,11111222,99999999' 
ADCP,ioos:station:wmo:42890:1,2014-08-01T07:35:00Z,27.6250,-90.4410,15.2,350.0,58.2,-9999.0,'11111222,11111222,99999999' 
ADCP,ioos:station:wmo:42890:1,2014-08-01T07:55:00Z,27.6250,-90.4410,15.2,13.0,71.5,-9999.0,'11111222,11111222,99999999' 
ADCP,ioos:station:wmo:42890:1,2014-08-01T08:15:00Z,27.6250,-90.4410,15.2,324.0,68.9,-99999.0,'1111122,1111122,1199999999' 
ADCP,ioos:station:wmo:42890:1,2014-08-01T08:35:00Z,27.6250,-90.4410,15.2,349.0,58.4,-9999.0,'11111222,11111222,99999999' 
ADCP,ioos:station:wmo:42890:1,2014-08-01T08:55:00Z,27.6250,-90.4410,15.2,351.0,60.7,-9999.0,'11111222,11111222,99999999' 
ADCP,ioos:station:wmo:42890:1,2014-08-01T09:15:00Z,27.6250,-90.4410,15.2,356.0,63.0,-99999.0,'1111122,1111122,1199999999' 
ADCP,ioos:station:wmo:42890:1,2014-08-01T09:35:00Z,27.6250,-90.4410,15.2,350.0,64.6,-9999.0,'11111222,11111222,99999999' 
ADCP,ioos:station:wmo:42890:1,2014-08-01T09:55:00Z,27.6250,-90.4410,15.2,339.0,57.7,-9999.0,'11111222,11111222,99999999' 
ADCP,ioos:station:wmo:42890:1,2014-08-01T10:15:00Z,27.6250,-90.4410,15.2,352.0,57.9,-99999.0,'1111122,1111122,1199999999' 
ADCP,ioos:station:wmo:42890:1,2014-08-01T10:35:00Z,27.6250,-90.4410,15.2,357.0,56.6,-9999.0,'11111222,11111222,99999999' 
ADCP,ioos:station:wmo:42890:1,2014-08-01T10:55:00Z,27.6250,-90.4410,15.2,348.0,51.5,-9999.0,'11111222,11111222,99999999' 
ADCP,ioos:station:wmo:42890:1,2014-08-01T11:15:00Z,27.6250,-90.4410,15.2,355.0,41.6,-99999.0,'1111122,1111122,1199999999' 
ADCP,ioos:station:wmo:42890:1,2014-08-01T11:35:00Z,27.6250,-90.4410,15.2,0.0,40.0,-9999.0,'11111222,11111222,99999999' 
ADCP,ioos:station:wmo:42890:1,2014-08-01T11:55:00Z,27.6250,-90.4410,15.2,337.0,46.3,-9999.0,'11111222,11111222,99999999' 
ADCP,ioos:station:wmo:42890:1,2014-08-01T12:15:00Z,27.6250,-90.4410,15.2,340.0,50.3,-99999.0,'1111122,1111122,1199999999' 
ADCP,ioos:station:wmo:42890:1,2014-08-01T12:35:00Z,27.6250,-90.4410,15.2,321.0,58.4,-9999.0,'11111222,11111222,99999999' 
ADCP,ioos:station:wmo:42890:1,2014-08-01T12:55:00Z,27.6250,-90.4410,15.2,314.0,68.7,-9999.0,'11111222,11111222,99999999' 
ADCP,ioos:station:wmo:42890:1,2014-08-01T13:15:00Z,27.6250,-90.4410,15.2,323.0,61.5,-99999.0,'1111122,1111122,1199999999' 
ADCP,ioos:station:wmo:42890:1,2014-08-01T13:35:00Z,27.6250,-90.4410,15.2,320.0,63.8,-9999.0,'11111222,11111222,99999999' 
ADCP,ioos:station:wmo:42890:1,2014-08-01T13:55:00Z,27.6250,-90.4410,15.2,328.0,72.1,-9999.0,'11111222,11111222,99999999' 
ADCP,ioos:station:wmo:42890:1,2014-08-01T14:15:00Z,27.6250,-90.4410,15.2,338.0,70.8,-99999.0,'1111122,1111122,1199999999' 
ADCP,ioos:station:wmo:42890:1,2014-08-01T14:35:00Z,27.6250,-90.4410,15.2,329.0,69.5,-9999.0,'11111222,11111222,99999999' 
ADCP,ioos:station:wmo:42890:1,2014-08-01T14:55:00Z,27.6250,-90.4410,15.2,328.0,74.6,-9999.0,'11111222,11111222,99999999' 
ADCP,ioos:station:wmo:42890:1,2014-08-01T15:15:00Z,27.6250,-90.4410,15.2,329.0,76.6,-99999.0,'1111122,1111122,1199999999' 
ADCP,ioos:station:wmo:42890:1,2014-08-01T15:35:00Z,27.6250,-90.4410,15.2,324.0,76.5,-9999.0,'11111222,11111222,99999999' 
ADCP,ioos:station:wmo:42890:1,2014-08-01T15:55:00Z,27.6250,-90.4410,15.2,316.0,77.5,-9999.0,'11111222,11111222,99999999' 
ADCP,ioos:station:wmo:42890:1,2014-08-01T16:15:00Z,27.6250,-90.4410,15.2,354.0,68.0,-99999.0,'1111122,1111122,1199999999' 
ADCP,ioos:station:wmo:42890:1,2014-08-01T16:35:00Z,27.6250,-90.4410,15.2,340.0,71.2,-9999.0,'11111222,11111222,99999999' 
ADCP,ioos:station:wmo:42890:1,2014-08-01T16:55:00Z,27.6250,-90.4410,15.2,350.0,70.6,-9999.0,'11111222,11111222,99999999' 
ADCP,ioos:station:wmo:42890:1,2014-08-01T17:15:00Z,27.6250,-90.4410,15.2,356.0,78.6,-99999.0,'1111122,1111122,1199999999' 
ADCP,ioos:station:wmo:42890:1,2014-08-01T17:35:00Z,27.6250,-90.4410,15.2,323.0,83.8,-9999.0,'11111222,11111222,99999999' 
ADCP,ioos:station:wmo:42890:1,2014-08-01T17:55:00Z,27.6250,-90.4410,15.2,357.0,74.4,-9999.0,'11111222,11111222,99999999' 
ADCP,ioos:station:wmo:42890:1,2014-08-01T18:15:00Z,27.6250,-90.4410,15.2,322.0,119.4,-99999.0,'1111122,1111122,1199999999' 
ADCP,ioos:station:wmo:42890:1,2014-08-01T18:35:00Z,27.6250,-90.4410,15.2,8.0,77.1,-9999.0,'11111222,11111222,99999999' 
ADCP,ioos:station:wmo:42890:1,2014-08-01T18:55:00Z,27.6250,-90.4410,15.2,6.0,85.8,-9999.0,'11111222,11111222,99999999' 
ADCP,ioos:station:wmo:42890:1,2014-08-01T19:15:00Z,27.6250,-90.4410,15.2,4.0,78.6,-99999.0,'1111122,1111122,1199999999' 
ADCP,ioos:station:wmo:42890:1,2014-08-01T19:35:00Z,27.6250,-90.4410,15.2,353.0,68.4,-9999.0,'11111222,11111222,99999999' 
ADCP,ioos:station:wmo:42890:1,2014-08-01T19:55:00Z,27.6250,-90.4410,15.2,359.0,65.7,-9999.0,'11111222,11111222,99999999' 
ADCP,ioos:station:wmo:42890:1,2014-08-01T20:15:00Z,27.6250,-90.4410,15.2,341.0,63.6,-99999.0,'1111122,1111122,1199999999' 
ADCP,ioos:station:wmo:42890:1,2014-08-01T20:35:00Z,27.6250,-90.4410,15.2,5.0,73.3,-9999.0,'11111222,11111222,99999999' 
ADCP,ioos:station:wmo:42890:1,2014-08-01T20:55:00Z,27.6250,-90.4410,15.2,301.0,80.6,-9999.0,'11111222,11111222,99999999' 
ADCP,ioos:station:wmo:42890:1,2014-08-01T21:15:00Z,27.6250,-90.4410,15.2,336.0,60.0,-9999.0,'11111222,11111222,99999999' 
ADCP,ioos:station:wmo:42890:1,2014-08-01T21:35:00Z,27.6250,-90.4410,15.2,4.0,66.6,-9999.0,'11111222,11111222,99999999' 
ADCP,ioos:station:wmo:42890:1,2014-08-01T21:55:00Z,27.6250,-90.4410,15.2,10.0,62.7,-9999.0,'11111222,11111222,99999999' 
ADCP,ioos:station:wmo:42890:1,2014-08-01T22:15:00Z,27.6250,-90.4410,15.2,16.0,65.3,-99999.0,'1111122,1111122,1199999999' 
ADCP,ioos:station:wmo:42890:1,2014-08-01T22:35:00Z,27.6250,-90.4410,15.2,23.0,67.0,-9999.0,'11111222,11111222,99999999' 
ADCP,ioos:station:wmo:42890:1,2014-08-01T22:55:00Z,27.6250,-90.4410,15.2,11.0,57.8,-9999.0,'11111222,11111222,99999999' 
ADCP,ioos:station:wmo:42890:1,2014-08-01T23:15:00Z,27.6250,-90.4410,15.2,27.0,75.4,-99999.0,'1111122,1111122,1199999999' 
ADCP,ioos:station:wmo:42890:1,2014-08-01T23:35:00Z,27.6250,-90.4410,15.2,342.0,45.4,-9999.0,'11111222,11111222,99999999' 
ADCP,ioos:station:wmo:42890:1,2014-08-01T23:55:00Z,27.6250,-90.4410,15.2,23.0,53.0,-9999.0,'11111222,11111222,99999999' 
ADCP,ioos:station:wmo:42890:1,2014-08-02T00:15:00Z,27.6250,-90.4410,15.2,10.0,45.5,-99999.0,'1111122,1111122,1199999999' 
ADCP,ioos:station:wmo:42890:1,2014-08-02T00:35:00Z,27.6250,-90.4410,15.2,8.0,44.8,-9999.0,'11111222,11111222,99999999' 
ADCP,ioos:station:wmo:42890:1,2014-08-02T00:55:00Z,27.6250,-90.4410,15.2,7.0,47.6,-9999.0,'11111222,11111222,99999999' 
ADCP,ioos:station:wmo:42890:1,2014-08-02T01:15:00Z,27.6250,-90.4410,15.2,13.0,52.2,-99999.0,'1111122,1111122,1199999999' 
ADCP,ioos:station:wmo:42890:1,2014-08-02T01:35:00Z,27.6250,-90.4410,15.2,16.0,51.8,-9999.0,'11111222,11111222,99999999' 
ADCP,ioos:station:wmo:42890:1,2014-08-02T01:55:00Z,27.6250,-90.4410,15.2,16.0,52.6,-9999.0,'11111222,11111222,99999999' 
ADCP,ioos:station:wmo:42890:1,2014-08-02T02:15:00Z,27.6250,-90.4410,15.2,20.0,56.0,-99999.0,'1111122,1111122,1199999999' 
ADCP,ioos:station:wmo:42890:1,2014-08-02T02:35:00Z,27.6250,-90.4410,15.2,13.0,51.9,-9999.0,'11111222,11111222,99999999' 
ADCP,ioos:station:wmo:42890:1,2014-08-02T02:55:00Z,27.6250,-90.4410,15.2,340.0,52.0,-9999.0,'11111222,11111222,99999999' 
ADCP,ioos:station:wmo:42890:1,2014-08-02T03:15:00Z,27.6250,-90.4410,15.2,25.0,58.6,-99999.0,'1111122,1111122,1199999999' 
ADCP,ioos:station:wmo:42890:1,2014-08-02T03:35:00Z,27.6250,-90.4410,15.2,2.0,38.1,-9999.0,'11111222,11111222,99999999' 
ADCP,ioos:station:wmo:42890:1,2014-08-02T03:55:00Z,27.6250,-90.4410,15.2,353.0,39.3,-9999.0,'11111222,11111222,99999999' 
ADCP,ioos:station:wmo:42890:1,2014-08-02T04:15:00Z,27.6250,-90.4410,15.2,348.0,44.2,-99999.0,'1111122,1111122,1199999999' 
ADCP,ioos:station:wmo:42890:1,2014-08-02T04:35:00Z,27.6250,-90.4410,15.2,359.0,35.0,-9999.0,'11111222,11111222,99999999' 
ADCP,ioos:station:wmo:42890:1,2014-08-02T04:55:00Z,27.6250,-90.4410,15.2,8.0,54.9,-9999.0,'11111222,11111222,99999999' 
ADCP,ioos:station:wmo:42890:1,2014-08-02T05:15:00Z,27.6250,-90.4410,15.2,34.0,78.2,-99999.0,'1111122,1111122,1199999999' 
ADCP,ioos:station:wmo:42890:1,2014-08-02T05:35:00Z,27.6250,-90.4410,15.2,10.0,52.6,-9999.0,'11111222,11111222,99999999' 
ADCP,ioos:station:wmo:42890:1,2014-08-02T05:55:00Z,27.6250,-90.4410,15.2,21.0,67.6,-9999.0,'11111222,11111222,99999999' 
ADCP,ioos:station:wmo:42890:1,2014-08-02T06:15:00Z,27.6250,-90.4410,15.2,5.0,51.8,-99999.0,'1111122,1111122,1199999999' 
ADCP,ioos:station:wmo:42890:1,2014-08-02T06:35:00Z,27.6250,-90.4410,15.2,23.0,67.0,-99999.0,'1111122,1111122,1199999999' 
ADCP,ioos:station:wmo:42890:1,2014-08-02T06:55:00Z,27.6250,-90.4410,15.2,19.0,62.2,-9999.0,'11111222,11111222,99999999' 
ADCP,ioos:station:wmo:42890:1,2014-08-02T07:15:00Z,27.6250,-90.4410,15.2,23.0,69.6,-9999.0,'11111222,11111222,99999999' 
ADCP,ioos:station:wmo:42890:1,2014-08-02T07:35:00Z,27.6250,-90.4410,15.2,20.0,57.8,-9999.0,'11111222,11111222,99999999' 
ADCP,ioos:station:wmo:42890:1,2014-08-02T07:55:00Z,27.6250,-90.4410,15.2,14.0,55.3,-9999.0,'11111222,11111222,99999999' 
ADCP,ioos:station:wmo:42890:1,2014-08-02T08:15:00Z,27.6250,-90.4410,15.2,18.0,51.5,-9999.0,'11111222,11111222,99999999' 
ADCP,ioos:station:wmo:42890:1,2014-08-02T08:35:00Z,27.6250,-90.4410,15.2,342.0,48.9,-9999.0,'11111222,11111222,99999999' 
ADCP,ioos:station:wmo:42890:1,2014-08-02T08:55:00Z,27.6250,-90.4410,15.2,3.0,50.7,-9999.0,'11111222,11111222,99999999' 
ADCP,ioos:station:wmo:42890:1,2014-08-02T09:15:00Z,27.6250,-90.4410,15.2,8.0,50.6,-99999.0,'1111122,1111122,1199999999' 
ADCP,ioos:station:wmo:42890:1,2014-08-02T09:35:00Z,27.6250,-90.4410,15.2,315.0,59.5,-9999.0,'11111222,11111222,99999999' 
ADCP,ioos:station:wmo:42890:1,2014-08-02T09:55:00Z,27.6250,-90.4410,15.2,337.0,37.9,-9999.0,'11111222,11111222,99999999' 
ADCP,ioos:station:wmo:42890:1,2014-08-02T10:15:00Z,27.6250,-90.4410,15.2,338.0,44.5,-99999.0,'1111122,1111122,1199999999' 
ADCP,ioos:station:wmo:42890:1,2014-08-02T10:35:00Z,27.6250,-90.4410,15.2,344.0,47.4,-9999.0,'11111222,11111222,99999999' 
ADCP,ioos:station:wmo:42890:1,2014-08-02T10:55:00Z,27.6250,-90.4410,15.2,316.0,43.4,-9999.0,'11111222,11111222,99999999' 
ADCP,ioos:station:wmo:42890:1,2014-08-02T11:15:00Z,27.6250,-90.4410,15.2,348.0,33.4,-99999.0,'1111122,1111122,1199999999' 
ADCP,ioos:station:wmo:42890:1,2014-08-02T11:35:00Z,27.6250,-90.4410,15.2,347.0,36.4,-9999.0,'11111222,11111222,99999999' 
ADCP,ioos:station:wmo:42890:1,2014-08-02T11:55:00Z,27.6250,-90.4410,15.2,355.0,39.9,-9999.0,'11111222,11111222,99999999' 
ADCP,ioos:station:wmo:42890:1,2014-08-02T12:15:00Z,27.6250,-90.4410,15.2,1.0,46.4,-99999.0,'1111122,1111122,1199999999' 
ADCP,ioos:station:wmo:42890:1,2014-08-02T12:35:00Z,27.6250,-90.4410,15.2,340.0,48.3,-9999.0,'11111222,11111222,99999999' 
ADCP,ioos:station:wmo:42890:1,2014-08-02T12:55:00Z,27.6250,-90.4410,15.2,324.0,50.1,-9999.0,'11111222,11111222,99999999' 
ADCP,ioos:station:wmo:42890:1,2014-08-02T13:15:00Z,27.6250,-90.4410,15.2,327.0,47.2,-99999.0,'1111122,1111122,1199999999' 
ADCP,ioos:station:wmo:42890:1,2014-08-02T13:35:00Z,27.6250,-90.4410,15.2,316.0,45.8,-9999.0,'11111222,11111222,99999999' 
ADCP,ioos:station:wmo:42890:1,2014-08-02T13:55:00Z,27.6250,-90.4410,15.2,326.0,50.3,-9999.0,'11111222,11111222,99999999' 
ADCP,ioos:station:wmo:42890:1,2014-08-02T14:15:00Z,27.6250,-90.4410,15.2,342.0,51.4,-99999.0,'1111122,1111122,1199999999' 
ADCP,ioos:station:wmo:42890:1,2014-08-02T14:35:00Z,27.6250,-90.4410,15.2,353.0,57.7,-9999.0,'11111222,11111222,99999999' 
ADCP,ioos:station:wmo:42890:1,2014-08-02T14:55:00Z,27.6250,-90.4410,15.2,350.0,57.1,-9999.0,'11111222,11111222,99999999' 
ADCP,ioos:station:wmo:42890:1,2014-08-02T15:15:00Z,27.6250,-90.4410,15.2,350.0,59.6,-99999.0,'1111122,1111122,1199999999' 
ADCP,ioos:station:wmo:42890:1,2014-08-02T15:35:00Z,27.6250,-90.4410,15.2,320.0,61.8,-9999.0,'11111222,11111222,99999999' 
ADCP,ioos:station:wmo:42890:1,2014-08-02T15:55:00Z,27.6250,-90.4410,15.2,337.0,58.0,-9999.0,'11111222,11111222,99999999' 
ADCP,ioos:station:wmo:42890:1,2014-08-02T16:15:00Z,27.6250,-90.4410,15.2,330.0,59.0,-9999.0,'11111222,11111222,99999999' 
ADCP,ioos:station:wmo:42890:1,2014-08-02T16:35:00Z,27.6250,-90.4410,15.2,344.0,48.8,-9999.0,'11111222,11111222,99999999' 
ADCP,ioos:station:wmo:42890:1,2014-08-02T16:55:00Z,27.6250,-90.4410,15.2,357.0,57.3,-9999.0,'11111222,11111222,99999999' 
ADCP,ioos:station:wmo:42890:1,2014-08-02T17:15:00Z,27.6250,-90.4410,15.2,2.0,60.3,-99999.0,'1111122,1111122,1199999999' 
ADCP,ioos:station:wmo:42890:1,2014-08-02T17:35:00Z,27.6250,-90.4410,15.2,328.0,50.6,-9999.0,'11111222,11111222,99999999' 
ADCP,ioos:station:wmo:42890:1,2014-08-02T17:55:00Z,27.6250,-90.4410,15.2,333.0,57.1,-9999.0,'11111222,11111222,99999999' 
ADCP,ioos:station:wmo:42890:1,2014-08-02T18:15:00Z,27.6250,-90.4410,15.2,348.0,53.0,-99999.0,'1111122,1111122,1199999999' 
ADCP,ioos:station:wmo:42890:1,2014-08-02T18:35:00Z,27.6250,-90.4410,15.2,344.0,57.9,-9999.0,'11111222,11111222,99999999' 
ADCP,ioos:station:wmo:42890:1,2014-08-02T18:55:00Z,27.6250,-90.4410,15.2,337.0,53.3,-9999.0,'11111222,11111222,99999999' 
ADCP,ioos:station:wmo:42890:1,2014-08-02T19:15:00Z,27.6250,-90.4410,15.2,347.0,52.1,-99999.0,'1111122,1111122,1199999999' 
ADCP,ioos:station:wmo:42890:1,2014-08-02T19:35:00Z,27.6250,-90.4410,15.2,344.0,48.3,-9999.0,'11111222,11111222,99999999' 
ADCP,ioos:station:wmo:42890:1,2014-08-02T19:55:00Z,27.6250,-90.4410,15.2,347.0,42.4,-9999.0,'11111222,11111222,99999999' 
ADCP,ioos:station:wmo:42890:1,2014-08-02T20:15:00Z,27.6250,-90.4410,15.2,7.0,45.2,-99999.0,'1111122,1111122,1199999999' 
ADCP,ioos:station:wmo:42890:1,2014-08-02T20:35:00Z,27.6250,-90.4410,15.2,334.0,43.1,-9999.0,'11111222,11111222,99999999' 
ADCP,ioos:station:wmo:42890:1,2014-08-02T20:55:00Z,27.6250,-90.4410,15.2,331.0,46.9,-9999.0,'11111222,11111222,99999999' 
ADCP,ioos:station:wmo:42890:1,2014-08-02T21:15:00Z,27.6250,-90.4410,15.2,346.0,41.1,-99999.0,'1111122,1111122,1199999999' 
ADCP,ioos:station:wmo:42890:1,2014-08-02T21:35:00Z,27.6250,-90.4410,15.2,334.0,43.6,-9999.0,'11111222,11111222,99999999' 
ADCP,ioos:station:wmo:42890:1,2014-08-02T21:55:00Z,27.6250,-90.4410,15.2,353.0,37.7,-9999.0,'11111222,11111222,99999999' 
ADCP,ioos:station:wmo:42890:1,2014-08-02T22:15:00Z,27.6250,-90.4410,15.2,344.0,41.1,-99999.0,'1111122,1111122,1199999999' 
ADCP,ioos:station:wmo:42890:1,2014-08-02T22:35:00Z,27.6250,-90.4410,15.2,336.0,33.6,-9999.0,'11111222,11111222,99999999' 
ADCP,ioos:station:wmo:42890:1,2014-08-02T22:55:00Z,27.6250,-90.4410,15.2,313.0,39.5,-9999.0,'11111222,11111222,99999999' 
ADCP,ioos:station:wmo:42890:1,2014-08-02T23:15:00Z,27.6250,-90.4410,15.2,318.0,37.9,-99999.0,'1111122,1111122,1199999999' 
ADCP,ioos:station:wmo:42890:1,2014-08-02T23:35:00Z,27.6250,-90.4410,15.2,325.0,34.1,-9999.0,'11111222,11111222,99999999' 
ADCP,ioos:station:wmo:42890:1,2014-08-02T23:55:00Z,27.6250,-90.4410,15.2,339.0,33.9,-9999.0,'11111222,11111222,99999999' 
ADCP,ioos:station:wmo:42890:1,2014-08-03T00:15:00Z,27.6250,-90.4410,15.2,322.0,40.0,-99999.0,'1111122,1111122,1199999999' 
ADCP,ioos:station:wmo:42890:1,2014-08-03T00:35:00Z,27.6250,-90.4410,15.2,329.0,37.3,-9999.0,'11111222,11111222,99999999' 
ADCP,ioos:station:wmo:42890:1,2014-08-03T00:55:00Z,27.6250,-90.4410,15.2,338.0,37.2,-9999.0,'11111222,11111222,99999999' 
ADCP,ioos:station:wmo:42890:1,2014-08-03T01:15:00Z,27.6250,-90.4410,15.2,354.0,41.3,-99999.0,'1111122,1111122,1199999999' 
ADCP,ioos:station:wmo:42890:1,2014-08-03T01:35:00Z,27.6250,-90.4410,15.2,348.0,38.7,-9999.0,'11111222,11111222,99999999' 
ADCP,ioos:station:wmo:42890:1,2014-08-03T01:55:00Z,27.6250,-90.4410,15.2,333.0,33.4,-9999.0,'11111222,11111222,99999999' 
ADCP,ioos:station:wmo:42890:1,2014-08-03T02:15:00Z,27.6250,-90.4410,15.2,344.0,38.1,-99999.0,'1111122,1111122,1199999999' 
ADCP,ioos:station:wmo:42890:1,2014-08-03T02:35:00Z,27.6250,-90.4410,15.2,315.0,37.3,-9999.0,'11111222,11111222,99999999' 
ADCP,ioos:station:wmo:42890:1,2014-08-03T02:55:00Z,27.6250,-90.4410,15.2,313.0,36.9,-9999.0,'11111222,11111222,99999999' 
ADCP,ioos:station:wmo:42890:1,2014-08-03T03:15:00Z,27.6250,-90.4410,15.2,322.0,34.2,-99999.0,'1111122,1111122,1199999999' 
ADCP,ioos:station:wmo:42890:1,2014-08-03T03:35:00Z,27.6250,-90.4410,15.2,308.0,36.6,-9999.0,'11111222,11111222,99999999' 
ADCP,ioos:station:wmo:42890:1,2014-08-03T03:55:00Z,27.6250,-90.4410,15.2,318.0,32.6,-9999.0,'11111222,11111222,99999999' 
ADCP,ioos:station:wmo:42890:1,2014-08-03T04:15:00Z,27.6250,-90.4410,15.2,342.0,26.5,-99999.0,'1111122,1111122,1199999999' 
ADCP,ioos:station:wmo:42890:1,2014-08-03T04:35:00Z,27.6250,-90.4410,15.2,356.0,27.3,-9999.0,'11111222,11111222,99999999' 
ADCP,ioos:station:wmo:42890:1,2014-08-03T04:55:00Z,27.6250,-90.4410,15.2,342.0,24.9,-9999.0,'11111222,11111222,99999999' 
ADCP,ioos:station:wmo:42890:1,2014-08-03T05:15:00Z,27.6250,-90.4410,15.2,313.0,37.1,-99999.0,'1111122,1111122,1199999999' 
ADCP,ioos:station:wmo:42890:1,2014-08-03T05:35:00Z,27.6250,-90.4410,15.2,26.0,36.5,-9999.0,'11111222,11111222,99999999' 
ADCP,ioos:station:wmo:42890:1,2014-08-03T05:55:00Z,27.6250,-90.4410,15.2,340.0,23.1,-99999.0,'1111122,1111122,1199999999' 
ADCP,ioos:station:wmo:42890:1,2014-08-03T06:15:00Z,27.6250,-90.4410,15.2,27.0,56.3,-9999.0,'11111222,11111222,99999999' 
ADCP,ioos:station:wmo:42890:1,2014-08-03T06:35:00Z,27.6250,-90.4410,15.2,317.0,30.4,-9999.0,'11111222,11111222,99999999' 
ADCP,ioos:station:wmo:42890:1,2014-08-03T06:55:00Z,27.6250,-90.4410,15.2,348.0,26.4,-9999.0,'11111222,11111222,99999999' 
ADCP,ioos:station:wmo:42890:1,2014-08-03T07:15:00Z,27.6250,-90.4410,15.2,329.0,28.5,-9999.0,'11111222,11111222,99999999' 
ADCP,ioos:station:wmo:42890:1,2014-08-03T07:35:00Z,27.6250,-90.4410,15.2,316.0,26.9,-9999.0,'11111222,11111222,99999999' 
ADCP,ioos:station:wmo:42890:1,2014-08-03T07:55:00Z,27.6250,-90.4410,15.2,319.0,24.6,-9999.0,'11111222,11111222,99999999' 
ADCP,ioos:station:wmo:42890:1,2014-08-03T08:15:00Z,27.6250,-90.4410,15.2,299.0,33.6,-99999.0,'1111122,1111122,1199999999' 
ADCP,ioos:station:wmo:42890:1,2014-08-03T08:35:00Z,27.6250,-90.4410,15.2,331.0,25.3,-9999.0,'11111222,11111222,99999999' 
ADCP,ioos:station:wmo:42890:1,2014-08-03T08:55:00Z,27.6250,-90.4410,15.2,327.0,24.2,-9999.0,'11111222,11111222,99999999' 
ADCP,ioos:station:wmo:42890:1,2014-08-03T09:15:00Z,27.6250,-90.4410,15.2,345.0,23.3,-99999.0,'1111122,1111122,1199999999' 
ADCP,ioos:station:wmo:42890:1,2014-08-03T09:35:00Z,27.6250,-90.4410,15.2,341.0,22.3,-9999.0,'11111222,11111222,99999999' 
ADCP,ioos:station:wmo:42890:1,2014-08-03T09:55:00Z,27.6250,-90.4410,15.2,333.0,26.4,-9999.0,'11111222,11111222,99999999' 
ADCP,ioos:station:wmo:42890:1,2014-08-03T10:15:00Z,27.6250,-90.4410,15.2,326.0,26.8,-99999.0,'1111122,1111122,1199999999' 
ADCP,ioos:station:wmo:42890:1,2014-08-03T10:35:00Z,27.6250,-90.4410,15.2,293.0,40.0,-9999.0,'11111222,11111222,99999999' 
ADCP,ioos:station:wmo:42890:1,2014-08-03T10:55:00Z,27.6250,-90.4410,15.2,9.0,14.1,-9999.0,'11111222,11111222,99999999' 
ADCP,ioos:station:wmo:42890:1,2014-08-03T11:15:00Z,27.6250,-90.4410,15.2,346.0,16.4,-99999.0,'1111122,1111122,1199999999' 
ADCP,ioos:station:wmo:42890:1,2014-08-03T11:35:00Z,27.6250,-90.4410,15.2,348.0,12.5,-9999.0,'11111222,11111222,99999999' 
ADCP,ioos:station:wmo:42890:1,2014-08-03T11:55:00Z,27.6250,-90.4410,15.2,342.0,16.7,-9999.0,'11111222,11111222,99999999' 
ADCP,ioos:station:wmo:42890:1,2014-08-03T12:15:00Z,27.6250,-90.4410,15.2,34.0,19.1,-99999.0,'1111122,1111122,1199999999' 
ADCP,ioos:station:wmo:42890:1,2014-08-03T12:35:00Z,27.6250,-90.4410,15.2,346.0,13.7,-9999.0,'11111222,11111222,99999999' 
ADCP,ioos:station:wmo:42890:1,2014-08-03T12:55:00Z,27.6250,-90.4410,15.2,355.0,20.4,-9999.0,'11111222,11111222,99999999' 
ADCP,ioos:station:wmo:42890:1,2014-08-03T13:15:00Z,27.6250,-90.4410,15.2,6.0,19.5,-99999.0,'1111122,1111122,1199999999' 
ADCP,ioos:station:wmo:42890:1,2014-08-03T13:35:00Z,27.6250,-90.4410,15.2,22.0,18.3,-9999.0,'11111222,11111222,99999999' 
ADCP,ioos:station:wmo:42890:1,2014-08-03T13:55:00Z,27.6250,-90.4410,15.2,359.0,20.6,-9999.0,'11111222,11111222,99999999' 
ADCP,ioos:station:wmo:42890:1,2014-08-03T14:15:00Z,27.6250,-90.4410,15.2,7.0,18.2,-99999.0,'1111122,1111122,1199999999' 
ADCP,ioos:station:wmo:42890:1,2014-08-03T14:35:00Z,27.6250,-90.4410,15.2,9.0,16.9,-9999.0,'11111222,11111222,99999999' 
ADCP,ioos:station:wmo:42890:1,2014-08-03T14:55:00Z,27.6250,-90.4410,15.2,15.0,19.5,-9999.0,'11111222,11111222,99999999' 
ADCP,ioos:station:wmo:42890:1,2014-08-03T15:15:00Z,27.6250,-90.4410,15.2,351.0,17.0,-99999.0,'1111122,1111122,1199999999' 
ADCP,ioos:station:wmo:42890:1,2014-08-03T15:35:00Z,27.6250,-90.4410,15.2,349.0,17.8,-9999.0,'11111222,11111222,99999999' 
ADCP,ioos:station:wmo:42890:1,2014-08-03T15:55:00Z,27.6250,-90.4410,15.2,1.0,20.0,-9999.0,'11111222,11111222,99999999' 
ADCP,ioos:station:wmo:42890:1,2014-08-03T16:15:00Z,27.6250,-90.4410,15.2,348.0,20.2,-99999.0,'1111122,1111122,1199999999' 
ADCP,ioos:station:wmo:42890:1,2014-08-03T16:35:00Z,27.6250,-90.4410,15.2,1.0,20.9,-9999.0,'11111222,11111222,99999999' 
ADCP,ioos:station:wmo:42890:1,2014-08-03T16:55:00Z,27.6250,-90.4410,15.2,353.0,20.4,-9999.0,'11111222,11111222,99999999' 